Main page
METAR-TAF:

METAR-TAF

Airports :

Sirri Island Airport

Sirri, Iran

latitude: 25-54-34N, longitude: 054-32-22E, elevation: 13 m

Current weather observation

The report was made 9 hours and 56 minutes ago, at 15:00 UTC
Wind 4 kt from the East
Temperature 35°C
Humidity 75%
Pressure 996 hPa
Visibility: 8000 m

METAR: OIBS 201500Z 09004KT 8000 NSC 35/30 Q0996

Time: 05:26 (00:56 UTC)


TAF: missing

Weather observations and forecasts of more than 4000 airports (METAR and TAF reports).

The available stations are represented by yellow and red dots on the map.

Hover mouse over dot to see the name of the station.

Then click to see weather observations and forecasts.

To change the map : click on the green buttons with a black cross to zoom in, on the green button with a dash to zoom out, or on the green arrows for adjacent maps.


METAR-TAF: